Mason City, IA

1:35 AM CDT on May 30, 2017 (GMT -0500)
Mason City Municipal

Weather History for KMCW - September, 2013

Change the Weather History Date:

Saturday, September 28, 2013

  Actual Average Record
Temperature  
Mean Temperature 55 °F 55 °F  
Max Temperature 69 °F 68 °F 89 °F (1898)
Min Temperature 41 °F 43 °F 20 °F (1942)
Degree Days  
Heating Degree Days 10 10  
Month to date heating degree days 110 155  
Since 1 July heating degree days 148 191  
Cooling Degree Days 0 1  
Month to date cooling degree days 120 53  
Year to date cooling degree days 712 609  
Growing Degree Days 8 (Base 50)    
Moisture  
Dew Point 55 °F    
Average Humidity 82    
Maximum Humidity 100    
Minimum Humidity 64    
Precipitation  
Precipitation 0.05 in 0.10 in 1.29 in (1929)
Month to date precipitation 0.86 3.07  
Year to date precipitation 34.21 29.43  
Snow  
Snow 0.00 in 0.00 in 0.00 in (2002)
Month to date snowfall 0.0 0.0  
Since 1 July snowfall 0.0 0.0  
Since 1 September snowfall 0.0 0.0  
Snow Depth 0.00 in    
Sea Level Pressure  
Sea Level Pressure 29.85 in    
Wind  
Wind Speed 12 mph (WSW)    
Max Wind Speed 30 mph    
Max Gust Speed 45 mph    
Visibility 10 miles    
Events Rain    
T = Trace of Precipitation, MM = Missing Value Source: NWS Daily Summary

Daily Weather History Graph

Daily Weather History Graph

Search for Another Location

Airport or City:

Trip Planner

Search our weather history database for the weather conditions in past years. The results will help you decide how hot, cold, wet, or windy it might be!

Date:

Astronomy

Sep. 28, 2013 Rise Set
Actual Time 7:07 AM CDT 6:59 PM CDT
Civil Twilight 6:39 AM CDT 7:27 PM CDT
Nautical Twilight 6:06 AM CDT 8:00 PM CDT
Astronomical Twilight 5:32 AM CDT 8:34 PM CDT
Moon 12:47 AM CDT (9/28) 3:26 PM CDT (9/28)
Length of Visible Light 12h 48m
Length of Day
11h 51m
Waning Crescent, 36% of the Moon is Illuminated
Sep 28
Waning Crescent
Oct 4
New
Oct 11
First Quarter
Oct 18
Full
Oct 26
Last Quarter

Hourly Weather History & Observations

Time (CDT) Temp. Dew Point Humidity Pressure Visibility Wind Dir Wind Speed Gust Speed Precip Events Conditions
12:53 AM 66.0 °F 59.0 °F 78% 29.83 in 10.0 mi SSE 15.0 mph - N/A   Clear
1:53 AM 64.9 °F 57.9 °F 78% 29.83 in 10.0 mi SSE 15.0 mph - N/A   Clear
2:53 AM 64.0 °F 57.9 °F 80% 29.80 in 10.0 mi SE 12.7 mph - N/A   Clear
3:53 AM 62.1 °F 57.9 °F 86% 29.80 in 10.0 mi SSE 12.7 mph - N/A   Clear
4:53 AM 62.1 °F 57.9 °F 86% 29.78 in 10.0 mi SSE 15.0 mph - N/A   Clear
5:53 AM 63.0 °F 59.0 °F 87% 29.77 in 10.0 mi SSE 16.1 mph - N/A   Partly Cloudy
6:53 AM 64.9 °F 60.1 °F 84% 29.76 in 10.0 mi SSE 18.4 mph 26.5 mph N/A   Mostly Cloudy
7:53 AM 66.0 °F 61.0 °F 84% 29.75 in 10.0 mi South 20.7 mph 26.5 mph N/A   Overcast
8:53 AM 68.0 °F 61.0 °F 78% 29.74 in 10.0 mi South 19.6 mph 35.7 mph N/A   Mostly Cloudy
9:17 AM 68.0 °F 62.6 °F 83% 29.76 in 10.0 mi SSE 24.2 mph 32.2 mph N/A   Overcast
9:53 AM 68.0 °F 63.0 °F 84% 29.73 in 10.0 mi South 23.0 mph 35.7 mph 0.00 in   Overcast
10:53 AM 69.1 °F 63.0 °F 81% 29.73 in 10.0 mi South 19.6 mph 31.1 mph N/A   Overcast
11:26 AM 62.6 °F 59.0 °F 88% 29.81 in 10.0 mi West 21.9 mph 44.9 mph 0.00 in Rain Light Rain
11:41 AM 57.2 °F 55.4 °F 94% 29.83 in 10.0 mi West 21.9 mph 27.6 mph 0.00 in Rain Light Rain
11:48 AM 57.2 °F 55.4 °F 94% 29.83 in 10.0 mi West 19.6 mph 28.8 mph 0.00 in Rain Light Rain
11:53 AM 57.0 °F 55.0 °F 93% 29.81 in 10.0 mi West 17.3 mph 27.6 mph 0.00 in Rain Light Rain
12:07 PM 55.4 °F 55.4 °F 100% 29.84 in 10.0 mi West 16.1 mph 27.6 mph 0.01 in Rain Light Rain
12:10 PM 55.4 °F 55.4 °F 100% 29.84 in 9.0 mi West 12.7 mph 24.2 mph 0.01 in Rain Light Rain
12:29 PM 55.4 °F 53.6 °F 94% 29.84 in 10.0 mi WNW 18.4 mph - 0.02 in Rain Light Rain
12:50 PM 55.4 °F 53.6 °F 94% 29.85 in 10.0 mi West 15.0 mph - 0.02 in Rain Light Rain
12:53 PM 55.0 °F 54.0 °F 96% 29.83 in 10.0 mi WNW 17.3 mph - 0.02 in Rain Light Rain
1:53 PM 55.9 °F 54.0 °F 93% 29.85 in 10.0 mi West 12.7 mph - 0.03 in Rain Light Rain
2:53 PM 57.0 °F 54.0 °F 89% 29.88 in 10.0 mi West 11.5 mph - 0.00 in   Overcast
3:53 PM 60.1 °F 54.0 °F 80% 29.89 in 10.0 mi WNW 15.0 mph - N/A   Overcast
4:04 PM 59.0 °F 51.8 °F 77% 29.90 in 10.0 mi WNW 17.3 mph - N/A   Overcast
4:53 PM 60.1 °F 51.1 °F 72% 29.91 in 10.0 mi West 13.8 mph - N/A   Overcast
5:53 PM 61.0 °F 48.0 °F 62% 29.92 in 10.0 mi West 10.4 mph - N/A   Scattered Clouds
6:53 PM 57.0 °F 48.0 °F 72% 29.94 in 10.0 mi WSW 5.8 mph - N/A   Clear
7:53 PM 51.1 °F 46.0 °F 83% 29.96 in 10.0 mi West 6.9 mph - N/A   Clear
8:53 PM 51.1 °F 45.0 °F 80% 29.99 in 10.0 mi West 5.8 mph - N/A   Clear
9:53 PM 48.9 °F 45.0 °F 86% 30.00 in 10.0 mi West 4.6 mph - N/A   Clear
10:53 PM 48.9 °F 44.1 °F 83% 30.01 in 10.0 mi WSW 4.6 mph - N/A   Clear
11:53 PM 42.1 °F 42.1 °F 100% 30.03 in 10.0 mi Calm Calm - N/A   Clear